Location: Beacon Field Observatory
(38.7700°N, 77.0829°W)
Time: 17:47:59
(UTC-05:00)

UKube-1 - Pass Details

Date: 16 December 2019
Orbit: 614 x 618 km, 98.5° (Epoch: 21 January)

Event Time Altitude Azimuth Distance (km) Brightness Sun altitude
Rises 17:45:56 0° 11° (NNE) 2,899 ? -11.0°
Reaches altitude 10° 17:48:08 10° 11° (N) 1,989 ? -11.4°
Maximum altitude 17:52:27 81° 285° (WNW) 631 ? -12.2°
Drops below altitude 10° 17:56:45 10° 198° (SSW) 1,975 ? -13.0°
Sets 17:58:55 0° 197° (SSW) 2,877 ? -13.4°
